When you browse on this site, cookies collect data to enhance your experience and personalize the content and advertising you see.
Visit our Privacy Policy to learn more. By continuing to use the site, you agree to this use of cookies and data.
  • In Hungary
  • List of Countries
  • For 7 days
  • Water Temperature
  • Satellite Maps
  • Weather Map
  • News
  • Weather Widgets
  • user-avatar
    Login

    Hourly Weather Abancay

    Today, 18 January, Friday

    Time Temperature Precipitation Wind Pressure Humidity
    00:00 +12°C° 0.1 mm 1 mps 544 mmHg 87%
    01:00 +12°C° 0.1 mm 1 mps 544 mmHg 87%
    02:00 +12°C° 0.1 mm 1 mps 544 mmHg 87%
    03:00 +11°C° 0.1 mm 1 mps 544 mmHg 87%
    04:00 +11°C° 0.1 mm 1 mps 543 mmHg 87%
    05:00 +12°C° 0.1 mm 1 mps 544 mmHg 82%
    06:00 +13°C° 0.1 mm 1 mps 544 mmHg 78%
    07:00 +13°C° 0.1 mm 1 mps 545 mmHg 73%
    08:00 +15°C° 0.2 mm 2 mps 546 mmHg 67%
    09:00 +16°C° 0.2 mm 2 mps 547 mmHg 60%
    10:00 +18°C° 0.2 mm 3 mps 547 mmHg 53%
    11:00 +18°C° 0.3 mm 3 mps 547 mmHg 52%
    12:00 +19°C° 0.3 mm 3 mps 546 mmHg 52%
    13:00 +19°C° 0.3 mm 3 mps 546 mmHg 51%
    14:00 +19°C° 0.1 mm 3 mps 546 mmHg 49%
    15:00 +20°C° 0.1 mm 4 mps 546 mmHg 47%
    16:00 +20°C° 0.1 mm 4 mps 546 mmHg 45%
    17:00 +18°C° 0 mm 3 mps 545 mmHg 56%
    18:00 +14°C° 0 mm 3 mps 544 mmHg 67%
    19:00 +13°C° 0 mm 2 mps 543 mmHg 79%
    20:00 +12°C° 0 mm 2 mps 543 mmHg 82%
    21:00 +11°C° 0 mm 1 mps 543 mmHg 86%
    22:00 +10°C° 0 mm 1 mps 544 mmHg 89%
    23:00 +9°C° 0 mm 0 mps 544 mmHg 89%

    Tomorrow, 19 January, Saturday

    Time Temperature Precipitation Wind Pressure Humidity
    00:00 +9°C° 0 mm 0 mps 543 mmHg 88%
    01:00 +9°C° 0 mm 0 mps 543 mmHg 88%
    02:00 +9°C° 0 mm 0 mps 543 mmHg 87%
    03:00 +9°C° 0 mm 0 mps 543 mmHg 86%
    04:00 +9°C° 0 mm 0 mps 543 mmHg 86%
    05:00 +10°C° 0 mm 0 mps 544 mmHg 81%
    06:00 +12°C° 0 mm 0 mps 545 mmHg 75%
    07:00 +13°C° 0 mm 0 mps 546 mmHg 70%
    08:00 +16°C° 0 mm 1 mps 547 mmHg 62%
    09:00 +18°C° 0 mm 2 mps 548 mmHg 54%
    10:00 +20°C° 0 mm 3 mps 549 mmHg 46%
    11:00 +21°C° 0.1 mm 3 mps 548 mmHg 44%
    12:00 +21°C° 0.1 mm 3 mps 548 mmHg 42%
    13:00 +22°C° 0.1 mm 4 mps 548 mmHg 40%
    14:00 +22°C° 0.2 mm 4 mps 547 mmHg 41%
    15:00 +22°C° 0.2 mm 4 mps 546 mmHg 43%
    16:00 +21°C° 0.2 mm 4 mps 546 mmHg 44%
    17:00 +18°C° 0.1 mm 3 mps 545 mmHg 55%
    18:00 +16°C° 0.1 mm 3 mps 544 mmHg 67%
    19:00 +13°C° 0.1 mm 2 mps 543 mmHg 78%
    20:00 +12°C° 0 mm 2 mps 544 mmHg 82%
    21:00 +12°C° 0 mm 1 mps 544 mmHg 85%
    22:00 +11°C° 0 mm 1 mps 544 mmHg 89%
    23:00 +11°C° 0 mm 1 mps 544 mmHg 89%

    Day after tomorrow, 20 January, Sunday

    Time Temperature Precipitation Wind Pressure Humidity
    00:00 +11°C° 0 mm 1 mps 544 mmHg 89%
    01:00 +10°C° 0 mm 0 mps 543 mmHg 90%
    02:00 +10°C° 0 mm 0 mps 543 mmHg 88%
    03:00 +10°C° 0 mm 0 mps 543 mmHg 87%
    04:00 +10°C° 0 mm 0 mps 543 mmHg 86%
    05:00 +11°C° 0 mm 0 mps 544 mmHg 81%
    06:00 +12°C° 0 mm 0 mps 545 mmHg 77%
    07:00 +13°C° 0 mm 0 mps 546 mmHg 73%
    08:00 +16°C° 0 mm 1 mps 547 mmHg 64%
    09:00 +18°C° 0 mm 2 mps 548 mmHg 55%
    10:00 +20°C° 0 mm 2 mps 549 mmHg 46%
    11:00 +21°C° 0.2 mm 3 mps 549 mmHg 43%
    12:00 +22°C° 0.2 mm 3 mps 549 mmHg 41%
    13:00 +23°C° 0.2 mm 4 mps 548 mmHg 39%
    14:00 +23°C° 0.3 mm 4 mps 548 mmHg 41%
    15:00 +23°C° 0.3 mm 4 mps 547 mmHg 42%
    16:00 +22°C° 0.3 mm 4 mps 546 mmHg 43%
    17:00 +19°C° 0 mm 3 mps 545 mmHg 53%
    18:00 +17°C° 0 mm 3 mps 544 mmHg 64%
    19:00 +14°C° 0 mm 2 mps 544 mmHg 74%
    20:00 +13°C° 0 mm 2 mps 544 mmHg 77%
    21:00 +13°C° 0 mm 1 mps 544 mmHg 79%
    22:00 +12°C° 0 mm 1 mps 545 mmHg 82%
    23:00 +12°C° 0 mm 1 mps 544 mmHg 82%

    21 January, Monday

    Time Temperature Precipitation Wind Pressure Humidity
    00:00 +12°C° 0 mm 1 mps 544 mmHg 83%
    01:00 +11°C° 0 mm 0 mps 544 mmHg 83%
    02:00 +11°C° 0 mm 0 mps 543 mmHg 83%
    03:00 +11°C° 0 mm 0 mps 543 mmHg 84%
    04:00 +10°C° 0 mm 0 mps 543 mmHg 84%
    05:00 +11°C° 0 mm 0 mps 544 mmHg 79%
    06:00 +12°C° 0 mm 0 mps 545 mmHg 75%
    07:00 +13°C° 0 mm 0 mps 546 mmHg 70%
    08:00 +16°C° 0 mm 1 mps 547 mmHg 61%
    09:00 +19°C° 0 mm 2 mps 548 mmHg 53%
    10:00 +21°C° 0 mm 3 mps 549 mmHg 44%
    11:00 +22°C° 0.1 mm 3 mps 548 mmHg 42%
    12:00 +24°C° 0.1 mm 3 mps 548 mmHg 40%
    13:00 +25°C° 0.1 mm 4 mps 548 mmHg 37%
    14:00 +23°C° 0.2 mm 4 mps 547 mmHg 39%
    15:00 +23°C° 0.2 mm 4 mps 546 mmHg 41%
    16:00 +22°C° 0.2 mm 4 mps 546 mmHg 43%
    17:00 +20°C° 0.1 mm 3 mps 545 mmHg 54%
    18:00 +17°C° 0.1 mm 3 mps 544 mmHg 65%
    19:00 +14°C° 0.1 mm 2 mps 544 mmHg 76%
    20:00 +13°C° 0 mm 2 mps 544 mmHg 80%
    21:00 +12°C° 0 mm 1 mps 544 mmHg 85%
    22:00 +12°C° 0 mm 1 mps 544 mmHg 90%
    23:00 +11°C° 0 mm 1 mps 544 mmHg 90%

    22 January, Tuesday

    Time Temperature Precipitation Wind Pressure Humidity
    00:00 +11°C° 0 mm 1 mps 544 mmHg 89%
    01:00 +11°C° 0 mm 1 mps 543 mmHg 89%
    02:00 +11°C° 0 mm 1 mps 543 mmHg 88%
    03:00 +10°C° 0 mm 0 mps 543 mmHg 87%
    04:00 +10°C° 0 mm 0 mps 543 mmHg 87%
    05:00 +11°C° 0 mm 0 mps 544 mmHg 82%
    06:00 +13°C° 0 mm 1 mps 545 mmHg 78%
    07:00 +14°C° 0 mm 1 mps 546 mmHg 73%
    08:00 +16°C° 0 mm 1 mps 547 mmHg 64%
    09:00 +19°C° 0 mm 2 mps 548 mmHg 55%
    10:00 +21°C° 0 mm 3 mps 549 mmHg 45%
    11:00 +22°C° 0.1 mm 3 mps 548 mmHg 43%
    12:00 +24°C° 0.1 mm 3 mps 548 mmHg 41%
    13:00 +23°C° 0.1 mm 4 mps 548 mmHg 39%
    14:00 +23°C° 0.3 mm 4 mps 547 mmHg 42%
    15:00 +22°C° 0.3 mm 4 mps 547 mmHg 44%
    16:00 +22°C° 0.3 mm 4 mps 546 mmHg 47%
    17:00 +19°C° 0.1 mm 3 mps 545 mmHg 57%
    18:00 +16°C° 0.1 mm 3 mps 544 mmHg 68%
    19:00 +14°C° 0.1 mm 2 mps 543 mmHg 79%
    20:00 +13°C° 0 mm 2 mps 544 mmHg 82%
    21:00 +13°C° 0 mm 1 mps 544 mmHg 86%
    22:00 +12°C° 0 mm 1 mps 544 mmHg 89%
    23:00 +12°C° 0.1 mm 1 mps 544 mmHg 90%

    23 January, Wednesday

    Time Temperature Precipitation Wind Pressure Humidity
    00:00 +12°C° 0.1 mm 1 mps 544 mmHg 90%
    01:00 +11°C° 0.1 mm 1 mps 543 mmHg 91%
    02:00 +11°C° 0.1 mm 0 mps 543 mmHg 90%
    03:00 +11°C° 0.1 mm 0 mps 543 mmHg 89%
    04:00 +11°C° 0.1 mm 0 mps 543 mmHg 88%
    05:00 +11°C° 0 mm 0 mps 544 mmHg 84%
    06:00 +12°C° 0 mm 0 mps 545 mmHg 80%
    07:00 +14°C° 0 mm 1 mps 545 mmHg 76%
    08:00 +16°C° 0 mm 1 mps 546 mmHg 68%
    09:00 +17°C° 0 mm 2 mps 547 mmHg 61%
    10:00 +19°C° 0 mm 2 mps 548 mmHg 53%
    11:00 +20°C° 0.1 mm 3 mps 548 mmHg 50%
    12:00 +20°C° 0.1 mm 3 mps 547 mmHg 47%
    13:00 +21°C° 0.1 mm 3 mps 547 mmHg 45%
    14:00 +21°C° 0.1 mm 3 mps 547 mmHg 45%
    15:00 +21°C° 0.1 mm 3 mps 546 mmHg 46%
    16:00 +21°C° 0.1 mm 3 mps 545 mmHg 47%
    17:00 +18°C° 0 mm 3 mps 544 mmHg 58%
    18:00 +16°C° 0 mm 2 mps 543 mmHg 69%
    19:00 +13°C° 0 mm 2 mps 542 mmHg 80%
    20:00 +13°C° 0 mm 1 mps 543 mmHg 84%
    21:00 +12°C° 0 mm 1 mps 543 mmHg 87%
    22:00 +11°C° 0 mm 1 mps 543 mmHg 91%
    23:00 +12°C° 0.2 mm 1 mps 543 mmHg 90%
    Show more